Regional Weather Roundup
Issued by NWS Northern Indiana

Home | Current Version | Previous Version | Text Only | Print | Product List | Glossary Off
Versions: 1 2 3 4 5 6 7 8 9 10 11 12 13 14 15 16 17 18 19 20 21 22 23 24 25 26 27 28 29 30 31 32 33 34 35 36 37 38 39 40 41 42 43 44 45 46 47 48 49 50

222
ASUS43 KIWX 140510
RWRIWX

KIWX WEATHER ROUNDUP
NATIONAL WEATHER SERVICE NORTHERN INDIANA
1200 AM EST SUN FEB 14 2016

NOTE: "FAIR" INDICATES FEW OR NO CLOUDS BELOW 12,000 FEET WITH NO
SIGNIFICANT WEATHER AND/OR OBSTRUCTIONS TO VISIBILITY.

* THESE STATIONS ARE NOT UNDER NWS QUALITY CONTROL. THEY ALSO MAY NOT
  REPORT WEATHER SUCH AS PRECIPITATION OR FOG.

INZ001>027-140600-
NORTHERN INDIANA

CITY           SKY/WX    TMP DP  RH WIND       PRES   REMARKS
GARY*          CLOUDY    13  -1  53 S5        30.49S WCI   5
VALPARAISO     CLOUDY     8   0  69 CALM      30.48S
MICHIGAN CITY* MOCLDY     3   0  85 CALM      30.49S
LAPORTE*       MOCLDY     2  -2  85 CALM      30.48S
KNOX*          PTCLDY     3   0  85 CALM      30.49S
SOUTH BEND     CLOUDY     7   1  76 CALM      30.48S
GOSHEN         CLOUDY     9   2  73 CALM      30.47S
MONTICELLO*    CLOUDY    10  -2  56 E3        30.48S
LOGANSPORT*    CLOUDY     9   0  66 E5        30.49S WCI   0
ROCHESTER*     CLOUDY     3  -6  66 CALM      30.48F
WARSAW*        CLOUDY     7   1  78 CALM      30.47F
ANGOLA*        CLOUDY     9   3  78 CALM      30.43S
FORT WAYNE     CLOUDY     6   0  76 W6        30.49S WCI  -4
HUNTINGTON*    CLOUDY     3  -3  74 CALM      30.48F
PERU/GRISSOM   CLOUDY     8   0  69 E3        30.46F
MARION*        CLOUDY     4  -6  60 CALM      30.48S

$$
INZ028>050-140600-
CENTRAL INDIANA

CITY           SKY/WX    TMP DP  RH WIND       PRES   REMARKS
LAFAYETTE      CLOUDY    11   4  73 CALM      30.48S
KOKOMO*        CLOUDY     7   0  72 E3        30.47S
MUNCIE*        CLOUDY     7  -1  70 CALM      30.47F
INDIANAPOLIS   CLOUDY    14   1  56 NE7       30.45F WCI   4

$$
MIZ043>046-050>051-056>058-064>065-071>073-077>080-140600-
SOUTHWEST LOWER MICHIGAN

CITY           SKY/WX    TMP DP  RH WIND       PRES   REMARKS
BATTLE CREEK   CLOUDY    10  -1  61 N5        30.45S WCI   2
BENTON HARBOR  CLOUDY    15   6  67 S3        30.47S
COLDWATER*     CLOUDY    11   6  81 CALM      30.45S
HILLSDALE*     CLOUDY     9  -2  61 NW6       30.42S WCI  -1
HOLLAND        CLOUDY    12   4  70 SE5       30.48S WCI   4
GRAND RAPIDS   PTCLDY    11   0  61 CALM      30.47R
KALAMAZOO      CLOUDY    12   4  70 NE3       30.46S
STURGIS*       CLOUDY     9   6  85 CALM      30.45R
THREE RIVERS*  CLOUDY    13   8  81 CALM      30.47S

$$
OHZ001>008-015>018-024>025-140600-
NORTHWEST OHIO

CITY           SKY/WX    TMP DP  RH WIND       PRES   REMARKS
DEFIANCE       CLOUDY    14   3  61 NW6       30.48F WCI   5
FINDLAY        CLOUDY    11   4  73 W5        30.45F WCI   3
TOLEDO EXPRESS CLOUDY    13   4  67 N6        30.47S WCI   4
TOLEDO METCALF CLOUDY    14   0  53 N9        30.48S WCI   2
LIMA           CLOUDY     7   1  76 W6        30.45F WCI  -3

$$
AND FOR LAKE MICHIGAN COASTAL AND OPEN LAKE BUOY OBSERVATIONS

STATION/POSITION TEMP    WIND        PRES    VSBY  WAVE
                 AIR SEA DIR/SP/G                  HT/PER
                 (F)     (DEG/KT/KT) (MB)    (MI)  (FT/S)
CALUMET HARBOR    13     170/  5/  7 1031.5F
MICHIGAN CITY      9     130/  7/  8   N/A
BURNS HARBOR      11     180/  6/  8 1032.8S
SAINT JOSEPH      15     140/  2/  5 1031.8S

$$
&&




USA.gov is the U.S. government's official web portal to all federal, state and local government web resources and services.